TRA5963 EHEH-EKCH

Flight info

Callsign TRA5963
Flight time 1h 8m
Altitude 23000
Route VELNI4K VELNI Y869 SUMOP L179 MEVEL Y850 BASUM DCT MAKEL N851 GESKA Z711 MONAK MONAK5C
Aircraft B738/M-SDE2E3FGHIJ1RWXYZ/LB1

Departure

Time 2026-05-04 11:01
Airport Eindhoven Airport (EHEH)

Arrival

Time 2026-05-04 12:10
Airport Copenhagen Kastrup Airport (EKCH)
Time Latitude Longitude Altitude Speed Heading
2026-05-04 10:40 51.45688 5.38849 64 ft 0 kts 125°
2026-05-04 10:44 51.45688 5.38848 64 ft 0 kts 125°
2026-05-04 10:56 51.45712 5.38740 63 ft 1 kts 37°
2026-05-04 10:58 51.45728 5.38759 66 ft 8 kts 35°
2026-05-04 10:58 51.45793 5.38761 71 ft 11 kts 322°
2026-05-04 10:58 51.45837 5.38667 71 ft 10 kts 305°
2026-05-04 10:59 51.45879 5.38573 67 ft 10 kts 305°
2026-05-04 10:59 51.45913 5.38477 75 ft 10 kts 271°
2026-05-04 10:59 51.45884 5.38427 76 ft 0 kts 212°
2026-05-04 10:59 51.45825 5.38363 67 ft 43 kts 214°
2026-05-04 11:00 51.45314 5.37795 82 ft 133 kts 214°
2026-05-04 11:01 51.37303 5.33892 5363 ft 236 kts 121°
2026-05-04 11:02 51.36904 5.36441 6348 ft 241 kts 93°
2026-05-04 11:02 51.36887 5.39163 7207 ft 247 kts 91°
2026-05-04 11:05 51.42447 5.85022 16932 ft 369 kts 65°
2026-05-04 11:06 51.43553 5.88761 17649 ft 374 kts 65°
2026-05-04 11:06 51.44672 5.92563 18354 ft 379 kts 65°
2026-05-04 11:06 51.45799 5.96407 18973 ft 383 kts 65°
2026-05-04 11:06 51.46938 6.00301 19554 ft 389 kts 65°
2026-05-04 11:08 51.53801 6.28827 22981 ft 394 kts 85°
2026-05-04 11:10 51.57491 6.59293 22983 ft 402 kts 66°
2026-05-04 11:12 51.68977 6.84737 22970 ft 403 kts 54°
2026-05-04 11:12 51.70642 6.88367 22987 ft 403 kts 54°
2026-05-04 11:12 51.72336 6.92066 22990 ft 406 kts 54°
2026-05-04 11:12 51.74014 6.95736 22982 ft 408 kts 54°
2026-05-04 11:13 51.75675 6.99374 22962 ft 408 kts 54°
2026-05-04 11:13 51.77379 7.03112 22970 ft 407 kts 54°
2026-05-04 11:13 51.79057 7.06796 22975 ft 407 kts 54°
2026-05-04 11:13 51.80707 7.10426 22967 ft 406 kts 54°
2026-05-04 11:14 51.82376 7.14099 22974 ft 405 kts 54°
2026-05-04 11:14 51.84061 7.17817 22981 ft 405 kts 54°
2026-05-04 11:14 51.85720 7.21415 22978 ft 404 kts 51°
2026-05-04 11:16 51.99357 7.44457 22989 ft 406 kts 46°
2026-05-04 11:16 52.01309 7.47780 22968 ft 407 kts 46°
2026-05-04 11:16 52.03259 7.51109 22989 ft 407 kts 46°
2026-05-04 11:17 52.05208 7.54438 22996 ft 407 kts 46°
2026-05-04 11:17 52.07158 7.57771 22994 ft 407 kts 46°
2026-05-04 11:19 52.20974 7.80920 22985 ft 406 kts 46°
2026-05-04 11:19 52.22920 7.84255 22994 ft 405 kts 46°
2026-05-04 11:19 52.24861 7.87592 22985 ft 405 kts 46°
2026-05-04 11:19 52.26799 7.90925 23012 ft 405 kts 45°
2026-05-04 11:20 52.28737 7.94259 22978 ft 405 kts 45°
2026-05-04 11:20 52.30677 7.97598 22988 ft 405 kts 45°
2026-05-04 11:20 52.32620 8.00943 22990 ft 406 kts 45°
2026-05-04 11:20 52.34564 8.04295 22987 ft 407 kts 45°
2026-05-04 11:22 52.48214 8.27949 23003 ft 411 kts 45°
2026-05-04 11:22 52.50170 8.31360 22995 ft 410 kts 45°
2026-05-04 11:23 52.52121 8.34763 22992 ft 408 kts 45°
2026-05-04 11:23 52.54064 8.38157 22993 ft 407 kts 45°
2026-05-04 11:24 52.65642 8.58460 22976 ft 406 kts 45°
2026-05-04 11:25 52.67570 8.61858 22977 ft 407 kts 45°
2026-05-04 11:25 52.69502 8.65266 23017 ft 408 kts 45°
2026-05-04 11:25 52.71440 8.68691 22989 ft 410 kts 45°
2026-05-04 11:26 52.75334 8.75583 22991 ft 411 kts 45°
2026-05-04 11:27 52.89258 8.99349 22985 ft 410 kts 44°
2026-05-04 11:28 52.91246 9.02725 23004 ft 409 kts 44°
2026-05-04 11:28 52.93231 9.06108 22994 ft 409 kts 44°
2026-05-04 11:28 52.95215 9.09496 22990 ft 410 kts 44°
2026-05-04 11:28 52.97199 9.12889 22988 ft 410 kts 44°
2026-05-04 11:29 52.99182 9.16286 22981 ft 410 kts 44°
2026-05-04 11:29 53.01165 9.19690 22982 ft 410 kts 44°
2026-05-04 11:29 53.03149 9.23097 22988 ft 410 kts 44°
2026-05-04 11:29 53.05133 9.26511 22983 ft 410 kts 44°
2026-05-04 11:31 53.18995 9.50498 22979 ft 411 kts 44°
2026-05-04 11:33 53.32805 9.74631 22980 ft 410 kts 44°
2026-05-04 11:33 53.34774 9.78092 23003 ft 411 kts 45°
2026-05-04 11:33 53.36749 9.81568 22987 ft 413 kts 45°
2026-05-04 11:34 53.38704 9.85014 22988 ft 414 kts 45°
2026-05-04 11:34 53.40688 9.88516 22986 ft 415 kts 45°
2026-05-04 11:34 53.42677 9.92032 22982 ft 416 kts 45°
2026-05-04 11:34 53.44668 9.95558 23018 ft 417 kts 45°
2026-05-04 11:35 53.46660 9.99090 23026 ft 417 kts 45°
2026-05-04 11:35 53.48655 10.02632 23024 ft 418 kts 45°
2026-05-04 11:35 53.50651 10.06180 22986 ft 418 kts 45°
2026-05-04 11:35 53.52644 10.09730 22985 ft 417 kts 45°
2026-05-04 11:36 53.54632 10.13275 22988 ft 416 kts 45°
2026-05-04 11:36 53.56615 10.16818 23016 ft 416 kts 44°
2026-05-04 11:36 53.58596 10.20361 22999 ft 416 kts 44°
2026-05-04 11:36 53.60575 10.23905 22993 ft 415 kts 44°
2026-05-04 11:37 53.62551 10.27450 22984 ft 415 kts 45°
2026-05-04 11:37 53.64521 10.30990 22995 ft 414 kts 45°
2026-05-04 11:37 53.66490 10.34531 22986 ft 414 kts 45°
2026-05-04 11:37 53.68455 10.38072 22994 ft 413 kts 45°
2026-05-04 11:38 53.70417 10.41612 22985 ft 413 kts 45°
2026-05-04 11:38 53.72378 10.45157 22983 ft 413 kts 45°
2026-05-04 11:38 53.74339 10.48705 22981 ft 413 kts 45°
2026-05-04 11:38 53.76301 10.52261 22987 ft 414 kts 45°
2026-05-04 11:39 53.78298 10.55763 23026 ft 414 kts 41°
2026-05-04 11:39 53.79666 10.58008 23019 ft 414 kts 40°
2026-05-04 11:40 53.92303 10.78096 22990 ft 415 kts 40°
2026-05-04 11:41 53.94395 10.81476 22989 ft 415 kts 40°
2026-05-04 11:41 53.96484 10.84860 22977 ft 415 kts 40°
2026-05-04 11:41 53.98572 10.88249 22977 ft 414 kts 41°
2026-05-04 11:41 54.00653 10.91633 23002 ft 414 kts 40°
2026-05-04 11:42 54.02732 10.95017 22984 ft 414 kts 40°
2026-05-04 11:42 54.04811 10.98408 22978 ft 414 kts 40°
2026-05-04 11:42 54.06886 11.01796 22977 ft 413 kts 40°
2026-05-04 11:42 54.08957 11.05183 22971 ft 413 kts 40°
2026-05-04 11:43 54.11027 11.08572 22972 ft 413 kts 40°
2026-05-04 11:43 54.13094 11.11961 22973 ft 412 kts 40°
2026-05-04 11:43 54.15159 11.15352 22973 ft 412 kts 40°
2026-05-04 11:43 54.17228 11.18755 22964 ft 413 kts 40°
2026-05-04 11:44 54.19293 11.22155 22966 ft 413 kts 40°
2026-05-04 11:44 54.21363 11.25570 22977 ft 414 kts 40°
2026-05-04 11:44 54.23432 11.28987 22999 ft 415 kts 40°
2026-05-04 11:44 54.25510 11.32424 22980 ft 416 kts 41°
2026-05-04 11:45 54.27592 11.35873 22977 ft 417 kts 41°
2026-05-04 11:45 54.29674 11.39328 22974 ft 417 kts 41°
2026-05-04 11:45 54.31759 11.42793 22973 ft 418 kts 41°
2026-05-04 11:45 54.33841 11.46258 22973 ft 418 kts 41°
2026-05-04 11:46 54.35922 11.49727 22972 ft 418 kts 41°
2026-05-04 11:46 54.38004 11.53202 22971 ft 417 kts 41°
2026-05-04 11:46 54.40082 11.56677 22972 ft 417 kts 41°
2026-05-04 11:46 54.42157 11.60151 22976 ft 417 kts 41°
2026-05-04 11:47 54.44232 11.63629 22971 ft 417 kts 41°
2026-05-04 11:47 54.46306 11.67112 22984 ft 417 kts 41°
2026-05-04 11:47 54.48380 11.70600 22975 ft 417 kts 41°
2026-05-04 11:47 54.50453 11.74091 22968 ft 417 kts 41°
2026-05-04 11:48 54.52515 11.77571 22886 ft 412 kts 41°
2026-05-04 11:48 54.54554 11.81018 22565 ft 408 kts 41°
2026-05-04 11:48 54.56570 11.84427 22226 ft 405 kts 41°
2026-05-04 11:48 54.58545 11.87772 21859 ft 401 kts 41°
2026-05-04 11:49 54.60527 11.91134 21476 ft 398 kts 41°
2026-05-04 11:49 54.62562 11.94316 21070 ft 392 kts 33°
2026-05-04 11:49 54.64784 11.96987 20701 ft 387 kts 29°
2026-05-04 11:49 54.67027 11.99523 20322 ft 384 kts 28°
2026-05-04 11:50 54.69259 12.02024 19978 ft 381 kts 28°
2026-05-04 11:50 54.71472 12.04522 19604 ft 379 kts 28°
2026-05-04 11:50 54.73667 12.07024 19230 ft 377 kts 29°
2026-05-04 11:50 54.75845 12.09530 18874 ft 374 kts 29°
2026-05-04 11:51 54.78004 12.12028 18508 ft 372 kts 30°
2026-05-04 11:51 54.80148 12.14517 18137 ft 370 kts 30°
2026-05-04 11:51 54.82277 12.16994 17730 ft 367 kts 30°
2026-05-04 11:51 54.84391 12.19458 17351 ft 365 kts 30°
2026-05-04 11:52 54.86487 12.21905 16975 ft 361 kts 30°
2026-05-04 11:52 54.88564 12.24331 16617 ft 358 kts 30°
2026-05-04 11:52 54.90623 12.26739 16288 ft 355 kts 30°
2026-05-04 11:52 54.92664 12.29128 15927 ft 353 kts 30°
2026-05-04 11:53 54.94692 12.31505 15589 ft 350 kts 30°
2026-05-04 11:53 54.96702 12.33865 15228 ft 348 kts 30°
2026-05-04 11:53 54.98698 12.36210 14879 ft 346 kts 30°
2026-05-04 11:53 55.00687 12.38548 14543 ft 343 kts 30°
2026-05-04 11:55 55.14046 12.54169 12370 ft 324 kts 30°
2026-05-04 11:55 55.15915 12.56364 11977 ft 324 kts 30°
2026-05-04 11:56 55.17781 12.58559 11613 ft 323 kts 30°
2026-05-04 11:56 55.19614 12.60717 11258 ft 322 kts 30°
2026-05-04 11:56 55.21473 12.62909 10893 ft 321 kts 30°
2026-05-04 11:56 55.23318 12.65014 10680 ft 313 kts 23°
2026-05-04 11:57 55.25313 12.66430 10334 ft 307 kts 12°
2026-05-04 11:57 55.27342 12.67499 10098 ft 301 kts 11°
2026-05-04 11:57 55.29322 12.68519 9959 ft 293 kts 11°
2026-05-04 11:57 55.31260 12.69563 9671 ft 291 kts 12°
2026-05-04 11:58 55.33189 12.70639 9371 ft 290 kts 12°
2026-05-04 11:58 55.35103 12.71724 9064 ft 288 kts 13°
2026-05-04 11:58 55.37006 12.72810 8771 ft 286 kts 13°
2026-05-04 11:58 55.38891 12.73889 8491 ft 284 kts 13°
2026-05-04 11:59 55.40758 12.74958 8212 ft 281 kts 13°
2026-05-04 11:59 55.42612 12.76021 7940 ft 279 kts 13°
2026-05-04 11:59 55.44448 12.77074 7662 ft 276 kts 13°
2026-05-04 11:59 55.46270 12.78121 7391 ft 274 kts 13°
2026-05-04 12:00 55.48081 12.79161 7122 ft 272 kts 13°
2026-05-04 12:00 55.49875 12.80194 6858 ft 270 kts 13°
2026-05-04 12:00 55.51657 12.81219 6596 ft 269 kts 13°
2026-05-04 12:00 55.53430 12.82241 6329 ft 267 kts 13°
2026-05-04 12:01 55.55192 12.83258 6080 ft 266 kts 13°
2026-05-04 12:01 55.56930 12.84368 5806 ft 266 kts 17°
2026-05-04 12:02 55.66286 12.94085 4620 ft 272 kts 38°
2026-05-04 12:03 55.67700 12.96331 4447 ft 272 kts 37°
2026-05-04 12:03 55.69109 12.98531 4273 ft 266 kts 33°
2026-05-04 12:03 55.70741 12.99798 3946 ft 252 kts 358°
2026-05-04 12:03 55.72372 12.99198 3783 ft 235 kts 329°
2026-05-04 12:04 55.73677 12.97555 3620 ft 228 kts 311°
2026-05-04 12:04 55.74579 12.95317 3495 ft 218 kts 294°
2026-05-04 12:04 55.74967 12.92839 3393 ft 203 kts 277°
2026-05-04 12:04 55.75097 12.90351 3140 ft 203 kts 276°
2026-05-04 12:05 55.75247 12.87902 2905 ft 197 kts 276°
2026-05-04 12:05 55.75067 12.85548 2597 ft 196 kts 242°
2026-05-04 12:05 55.74156 12.83773 2386 ft 193 kts 230°
2026-05-04 12:05 55.73216 12.82107 2115 ft 189 kts 228°
2026-05-04 12:06 55.72274 12.80567 2009 ft 180 kts 226°
2026-05-04 12:06 55.71349 12.79121 2004 ft 175 kts 226°
2026-05-04 12:06 55.70446 12.77723 1991 ft 168 kts 227°
2026-05-04 12:06 55.69595 12.76409 2006 ft 161 kts 226°
2026-05-04 12:07 55.68781 12.75152 1973 ft 151 kts 226°
2026-05-04 12:07 55.68016 12.73970 1839 ft 140 kts 227°
2026-05-04 12:07 55.67299 12.72859 1653 ft 137 kts 226°
2026-05-04 12:07 55.66584 12.71753 1477 ft 135 kts 227°
2026-05-04 12:08 55.65883 12.70666 1294 ft 133 kts 226°
2026-05-04 12:08 55.65176 12.69572 1124 ft 135 kts 226°
2026-05-04 12:08 55.64482 12.68499 895 ft 130 kts 227°
2026-05-04 12:08 55.63798 12.67441 733 ft 132 kts 225°
2026-05-04 12:09 55.63088 12.66382 530 ft 136 kts 225°
2026-05-04 12:09 55.62389 12.65242 342 ft 137 kts 224°
2026-05-04 12:09 55.61688 12.64179 149 ft 129 kts 227°
2026-05-04 12:09 55.61017 12.63138 26 ft 125 kts 227°
2026-05-04 12:10 55.60467 12.62236 20 ft 86 kts 218°
2026-05-04 12:10 55.60084 12.61712 22 ft 63 kts 216°
2026-05-04 12:10 55.59886 12.61403 18 ft 32 kts 224°
2026-05-04 12:10 55.59727 12.61137 18 ft 36 kts 223°
2026-05-04 12:11 55.59580 12.60859 24 ft 9 kts 266°
2026-05-04 12:11 55.59617 12.60767 27 ft 10 kts 333°
2026-05-04 12:11 55.59680 12.60807 26 ft 14 kts 41°
2026-05-04 12:11 55.59781 12.60961 26 ft 24 kts 40°
2026-05-04 12:12 55.59919 12.61180 22 ft 27 kts 42°
2026-05-04 12:12 55.60052 12.61385 25 ft 25 kts 40°
2026-05-04 12:12 55.60178 12.61576 25 ft 23 kts 40°
2026-05-04 12:12 55.60300 12.61760 22 ft 23 kts 40°
2026-05-04 12:13 55.60417 12.61948 19 ft 23 kts 41°
2026-05-04 12:14 55.61231 12.63078 21 ft 23 kts 41°
2026-05-04 12:15 55.61348 12.63258 20 ft 22 kts 40°
2026-05-04 12:15 55.61465 12.63439 18 ft 22 kts 42°
2026-05-04 12:15 55.61584 12.63622 17 ft 23 kts 40°
2026-05-04 12:15 55.61699 12.63807 19 ft 22 kts 41°
2026-05-04 12:16 55.61814 12.63981 19 ft 21 kts 40°
2026-05-04 12:16 55.61934 12.64124 21 ft 21 kts 25°
2026-05-04 12:16 55.62063 12.64230 18 ft 20 kts 28°
2026-05-04 12:16 55.62192 12.64340 15 ft 21 kts 24°
2026-05-04 12:17 55.62327 12.64418 19 ft 20 kts 15°
2026-05-04 12:17 55.62455 12.64481 19 ft 13 kts 13°
2026-05-04 12:17 55.62523 12.64403 23 ft 13 kts 307°
2026-05-04 12:17 55.62575 12.64279 22 ft 12 kts 319°
2026-05-04 12:18 55.62653 12.64303 23 ft 12 kts 29°
2026-05-04 12:18 55.62711 12.64361 20 ft 5 kts 50°
2026-05-04 12:18 55.62716 12.64425 20 ft 5 kts 105°
2026-05-04 12:18 55.62711 12.64459 20 ft 0 kts 102°